Zurück zum Katalog

COSMOS 1480

AktivNavigationLEO
NORAD 14178·PAYLOAD·🇷🇺 Russia

Gestartet Jul 6, 1983 von Plesetsk Cosmodrome

Loading…

Nächste Überflüge (nächste 24 Stunden)

TLE

AktuellSource: Space-Track

Epoche: Sep 14, 2026, 20:59 UTC

1 14178U 83069H   26257.87452457 -.00000018  00000-0 -17477-4 0  9992
2 14178  74.0227  98.0482 0036450 242.1147 137.6740 12.43703104961093

Verfolge COSMOS 1480 in Echtzeit mit AllMySat

Download on the App Store